Location: Bernadets
(43.3537°N, 0.3167°E)
Time: 21:37:32
(UTC+00:00)

ATLAS 5 CENTAUR R/B - Pass Details

Date: 24 October 2021
Orbit: 497 x 1159 km, 63.4° (Epoch: 25 November)

Event Time Altitude Azimuth Distance (km) Brightness Sun altitude
Rises 17:47:25 0° 245° (WSW) 2,603 6.4 -9.0°
Reaches altitude 10° 17:49:41 10° 257° (WSW) 1,758 5.5 -9.4°
Maximum altitude 17:53:06 29° 319° (NW) 1,049 3.1 -10.1°
Drops below altitude 10° 17:56:56 10° 20° (NNE) 1,976 3.9 -10.7°
Enters shadow 17:59:26 - 31° (NNE) 2,915 4.7 -11.2°
